Location: Kalisz
(51.7636°N, 18.0893°E)
Time: 17:03:26
(UTC+02:00)

ISS - Pass Details

Date: 28 January 2019
Orbit: 411 x 421 km, 51.6° (Epoch: 21 October)

Event Time Altitude Azimuth Distance (km) Brightness Sun altitude
Rises 17:36:30 0° 244° (WSW) 2,409 2.1 -10.5°
Maximum altitude 17:42:03 59° 161° (SSE) 514 -3.4 -11.4°
Enters shadow 17:44:24 19° 86° (E) 1,125 -2.2 -11.7°
